Wind_Speed
10 13 13 11 8 4 3 3 0 1 0 2 1 1 2 3 2 1 4 4 3 4 9 7 4 8 8 9 10 11 11 2 5 4 3 8 25 29 19 21 24 22 20 18 18 17 16 18 20 20 18 17 16 15 14 13 14 14 13 13 12 12 12 12 13 13 13 14 14 14 15 15 16 16 16 16 15 15 15 16 16 16 16 16 16 17 17 17 16 16 16 16 16 16 18 20 21
12 13 11 8 5 2 1 1 0 1 1 1 1 0 2 2 1 2 5 7 4 5 7 6 11 11 12 10 9 14 13 8 9 8 6 21 28 23 24 27 25 22 21 19 19 18 18 20 21 21 19 17 16 15 14 14 14 14 13 13 12 12 12 12 12 13 13 14 14 14 14 15 16 16 16 16 16 15 15 15 16 16 16 16 16 16 17 16 16 16 16 16 16 16 20 24 24
13 10 9 8 3 1 0 1 0 1 1 1 1 1 1 2 3 4 7 9 4 5 9 12 11 8 12 13 11 12 8 7 14 12 9 24 21 21 30 27 25 23 22 21 20 19 20 22 22 22 19 17 16 15 14 14 14 14 13 12 12 12 12 13 12 13 14 14 14 15 15 16 16 16 16 16 16 16 16 16 15 15 15 15 15 16 16 16 15 16 16 16 16 18 23 26 26
11 8 8 8 2 1 1 0 1 1 1 2 1 3 2 3 5 7 10 10 2 8 10 11 8 6 14 16 10 12 10 6 13 12 10 19 21 28 31 26 26 23 22 22 21 21 22 22 21 20 18 16 15 15 14 14 14 13 13 12 12 13 13 13 13 13 14 15 15 16 16 16 16 16 16 16 16 16 16 16 15 15 15 15 15 16 16 15 15 16 16 17 17 20 25 26 26
12 11 6 3 1 1 0 1 1 1 1 1 3 5 4 5 9 9 8 6 4 9 10 9 8 7 13 12 6 7 9 8 12 14 14 21 28 32 29 28 27 24 24 23 23 23 22 22 21 20 17 15 15 14 14 14 13 12 12 12 12 13 13 13 14 14 15 15 16 15 16 16 16 16 16 16 16 16 15 15 15 15 14 15 15 16 15 15 16 16 17 17 18 23 26 25 24
9 7 4 1 1 1 1 1 1 2 1 1 2 4 8 8 9 7 6 5 6 9 11 10 11 12 10 9 7 7 10 13 13 15 21 27 31 31 29 29 26 25 24 22 24 23 23 22 21 20 16 16 15 14 14 13 13 12 12 12 13 13 13 14 14 15 15 16 16 16 15 16 16 16 16 16 16 15 15 15 15 15 15 15 15 16 15 15 16 17 17 17 18 24 25 23 21
5 1 2 1 2 0 1 2 2 2 0 3 1 2 8 7 6 7 8 7 9 11 13 12 13 14 10 8 8 11 15 16 16 19 26 31 32 31 29 27 26 26 23 23 25 24 24 22 21 18 16 16 14 14 13 13 13 13 13 13 13 13 14 14 15 15 15 16 16 16 16 16 16 16 15 16 16 15 15 15 15 15 16 16 15 15 16 16 16 17 17 17 20 24 23 21 19
4 2 1 1 1 1 1 2 2 1 0 3 2 3 3 3 4 5 9 6 7 10 14 14 13 14 12 10 8 13 19 19 23 27 31 32 32 30 28 27 27 27 24 25 26 25 23 21 20 18 17 16 15 15 13 13 14 13 13 13 13 13 14 14 15 15 15 16 16 16 16 16 16 16 15 16 16 16 15 15 15 15 16 16 15 15 16 16 16 17 17 18 22 23 21 19 17
3 3 0 1 1 1 1 2 0 1 1 3 3 2 1 2 3 0 7 7 7 11 15 14 12 15 14 12 10 12 19 25 30 32 32 32 31 30 28 28 29 28 26 27 27 25 23 20 20 19 17 16 16 15 14 14 14 13 13 13 13 13 14 14 15 15 15 15 15 16 16 16 16 16 15 16 16 16 16 16 15 16 16 16 16 15 16 16 17 18 19 21 22 21 19 17 17
4 3 1 1 1 1 2 1 1 0 2 2 3 1 1 4 1 3 3 9 11 13 17 14 13 18 15 12 10 11 21 30 32 31 30 31 30 29 28 28 28 29 29 29 27 25 23 20 20 19 18 17 16 15 15 15 14 14 14 13 13 13 14 14 14 14 14 15 15 15 15 16 16 16 15 15 16 16 16 16 16 15 16 16 16 16 16 16 17 18 20 21 20 19 17 16 17
2 1 1 2 1 1 2 2 0 1 1 3 2 2 4 5 5 2 3 11 15 16 18 14 14 18 16 11 8 15 27 30 31 31 31 30 29 29 28 27 27 30 31 30 27 25 22 20 19 18 18 17 16 15 15 15 14 14 14 13 12 13 14 14 14 14 14 15 14 14 15 15 16 16 15 15 16 16 17 16 16 15 15 16 16 16 16 16 16 17 19 20 19 17 16 16 17
0 1 1 2 1 2 1 3 2 1 1 4 1 6 3 4 3 3 3 13 17 17 15 12 13 14 15 11 8 19 28 27 29 31 31 30 29 28 27 26 28 31 32 29 27 24 22 20 18 17 17 16 15 15 15 14 14 14 14 13 12 13 14 14 14 14 14 14 14 14 14 14 15 16 15 15 16 16 17 17 16 15 15 16 16 16 16 17 17 16 18 19 19 17 15 16 17
1 1 1 2 1 1 0 3 3 3 1 3 3 6 3 7 1 6 4 14 15 15 14 13 14 14 13 10 10 17 21 24 28 30 30 31 29 28 27 27 28 30 30 29 27 24 22 20 19 18 17 16 15 14 15 14 14 14 14 13 12 13 13 14 14 15 15 14 14 14 14 14 15 16 15 15 15 16 16 17 16 15 15 16 16 17 16 17 17 16 17 18 18 16 15 16 17
2 1 1 1 0 1 0 3 3 3 1 3 3 3 2 4 7 6 2 12 13 13 16 16 16 15 13 10 10 10 16 26 28 28 30 30 30 29 28 27 27 27 28 27 26 24 22 21 20 19 17 17 16 15 15 14 13 14 14 14 13 12 13 14 14 16 15 14 14 13 13 14 15 16 15 15 15 15 16 17 16 15 15 15 16 17 17 17 16 16 16 18 18 17 16 16 16
2 0 1 1 1 0 1 2 3 2 2 4 2 1 2 2 5 1 2 8 13 14 16 16 13 11 12 12 10 10 20 29 28 28 30 29 29 28 29 28 27 26 25 25 24 22 21 22 21 19 18 18 17 16 15 14 14 14 14 14 14 13 14 14 14 16 15 15 14 13 13 14 15 15 14 15 14 14 16 17 15 15 15 15 16 16 17 17 16 16 16 17 17 17 17 17 17
1 0 0 0 1 1 0 1 2 2 2 3 1 4 4 3 4 1 4 2 11 15 14 14 10 9 14 12 14 21 28 30 29 30 29 29 28 28 28 27 26 25 23 23 22 19 20 22 21 18 18 18 18 17 16 15 14 15 15 15 14 14 14 15 16 16 15 14 14 13 13 14 15 13 13 14 14 15 17 17 15 15 16 15 15 15 16 16 16 15 16 16 17 17 17 17 16
1 1 1 0 1 1 2 3 2 3 4 5 4 7 4 6 3 2 4 3 7 15 13 13 12 13 16 16 23 31 31 29 31 29 25 26 27 26 26 25 25 24 23 23 21 19 19 21 20 17 17 18 19 17 16 15 15 15 15 15 15 15 15 16 17 16 15 14 14 13 13 16 16 14 14 14 14 16 16 16 16 16 16 16 15 16 16 16 16 16 16 17 17 18 17 16 15
1 1 1 1 2 1 2 3 3 3 6 7 5 5 3 8 4 4 1 5 2 9 12 15 17 16 19 26 31 31 29 29 29 26 22 22 23 22 21 22 23 22 23 23 21 20 20 20 18 17 16 16 18 18 17 16 15 16 16 16 16 16 15 16 16 15 15 14 14 14 15 16 16 14 14 15 15 16 16 16 16 17 17 16 17 16 16 16 17 17 18 18 18 18 17 15 14
2 0 1 1 1 0 2 3 3 2 9 9 5 2 2 5 2 0 5 3 2 8 14 17 19 19 22 29 32 31 29 27 26 25 22 20 20 19 19 20 20 21 23 23 22 21 21 21 19 19 17 15 17 18 17 15 15 17 17 17 16 16 15 15 16 15 16 16 14 15 16 16 16 15 15 15 16 16 16 17 16 16 16 16 17 17 17 18 19 19 19 19 18 17 16 14 12
2 1 1 1 1 2 3 3 3 2 11 10 6 2 2 5 4 5 3 5 6 9 13 17 20 21 22 24 29 31 28 26 26 24 22 20 19 19 19 20 20 21 22 23 23 21 21 21 20 20 17 16 16 16 17 16 15 17 18 17 17 16 15 14 15 15 16 15 14 14 15 16 16 17 16 16 17 16 17 17 16 15 15 15 16 17 18 19 20 20 20 19 17 16 14 13 10
3 2 1 1 2 3 3 3 4 2 8 8 7 5 3 5 4 3 1 4 6 10 13 18 21 22 22 22 26 30 28 26 25 23 21 20 19 18 19 21 21 21 21 22 22 22 22 21 21 20 17 15 15 15 17 16 16 18 19 18 17 15 14 14 14 14 14 14 14 14 15 16 18 19 19 18 18 17 17 16 15 14 15 15 15 16 17 17 17 17 17 16 15 14 12 10 8
2 2 4 3 3 2 3 4 5 5 6 6 8 7 5 5 3 2 4 3 3 9 17 20 21 21 20 20 21 24 25 24 23 24 22 21 21 19 19 21 20 20 21 22 22 23 22 22 23 21 18 16 15 16 16 17 17 18 19 19 17 16 14 14 14 14 13 14 14 14 16 18 20 21 21 21 19 17 17 16 15 15 15 15 14 14 14 13 12 12 12 12 11 10 10 8 9
2 2 6 5 6 3 2 4 3 5 6 5 5 5 6 7 5 1 2 3 5 10 20 19 19 20 22 21 18 18 19 19 21 23 25 24 23 21 21 21 20 21 22 22 23 23 22 23 23 21 20 18 17 17 17 17 17 17 17 17 17 16 15 14 15 15 14 14 14 15 18 20 20 20 20 20 18 16 16 16 15 14 14 14 13 10 10 10 8 8 9 9 8 8 8 9 10
6 4 7 8 7 4 3 4 2 4 5 5 3 5 5 7 7 3 4 6 7 11 20 18 19 21 21 19 15 16 16 17 19 22 24 24 24 24 23 22 22 23 22 22 23 23 23 23 23 21 20 19 19 19 19 17 15 15 15 15 16 16 16 15 15 16 15 15 16 16 18 18 18 17 17 17 15 15 15 14 14 13 12 12 11 9 8 8 7 7 8 7 6 6 7 8 8
9 6 8 10 9 8 7 4 3 4 4 5 5 6 5 5 6 4 5 7 6 14 20 17 18 18 17 16 15 15 15 17 20 21 22 22 25 24 22 23 23 23 23 22 22 22 23 23 22 21 20 19 19 20 20 17 15 15 14 14 15 16 16 15 16 17 15 16 16 17 17 17 17 17 15 15 13 14 14 13 12 12 12 12 11 10 7 6 6 7 7 6 6 6 7 7 8
10 7 8 13 14 12 10 7 5 4 2 4 6 6 4 3 2 2 4 5 9 18 19 18 17 16 15 14 15 14 13 16 19 20 21 23 25 24 22 23 22 22 24 22 22 23 23 22 21 21 20 19 19 20 20 18 17 16 14 13 14 15 15 14 17 18 16 16 16 16 16 17 17 16 14 13 13 14 14 13 13 13 12 12 11 10 8 7 8 7 6 6 7 8 9 10 11
5 3 4 13 11 9 12 10 7 5 4 2 6 5 2 2 2 1 4 5 14 19 18 18 16 15 15 14 13 14 13 15 20 20 20 22 23 24 23 23 22 22 24 23 22 24 24 22 20 21 20 19 19 19 18 17 17 15 15 15 14 14 16 17 18 17 17 16 15 15 15 16 16 15 12 12 12 13 14 14 14 13 12 12 11 11 10 8 8 8 8 9 9 9 10 11 13
8 2 6 14 10 8 12 11 8 7 5 3 7 6 4 4 3 2 5 8 15 19 18 17 15 14 14 14 13 11 12 17 21 20 20 21 20 23 24 24 24 23 24 25 24 24 23 22 21 22 21 19 18 18 16 16 16 13 14 16 15 15 18 19 18 17 18 16 14 14 15 16 16 15 11 10 10 11 12 12 12 13 13 13 11 10 9 8 8 9 9 10 9 9 9 10 12
13 7 8 13 13 10 8 8 7 6 3 1 7 6 3 2 1 4 4 8 14 19 18 16 15 14 13 13 11 8 12 18 20 18 21 23 22 24 24 24 27 24 23 25 24 24 22 21 23 22 23 21 18 18 16 16 16 13 14 18 19 20 20 19 18 18 19 17 16 16 16 17 17 17 14 12 13 13 11 12 13 14 14 13 11 10 9 9 8 8 9 9 8 8 7 7 10
12 12 9 8 8 6 4 5 7 7 3 3 4 3 2 3 5 4 1 7 14 17 16 15 14 13 12 11 10 8 11 15 16 18 22 24 24 25 25 25 26 24 26 25 24 24 22 22 23 22 23 21 19 18 16 17 16 12 15 18 19 23 22 19 17 18 19 18 18 18 18 18 17 17 17 16 16 16 14 14 15 14 14 14 12 11 9 9 8 8 8 7 7 6 5 8 11
9 9 8 5 4 5 4 5 10 8 0 2 3 3 4 6 5 1 4 5 13 16 14 14 13 12 12 10 9 9 9 12 16 19 22 25 25 26 27 26 24 26 29 25 23 24 22 22 21 21 21 20 19 18 17 19 15 14 17 14 13 20 21 19 18 19 18 18 20 20 19 19 18 17 18 17 16 16 15 14 14 14 15 14 13 12 10 9 8 7 7 7 6 6 6 9 11
5 6 4 2 3 5 3 3 7 7 2 3 0 3 3 6 4 6 8 3 8 14 13 13 13 13 12 9 8 8 8 13 19 21 22 23 24 26 29 27 25 28 28 25 24 24 23 22 21 21 20 20 20 19 20 21 18 20 19 12 12 16 17 19 19 19 18 19 20 19 19 18 17 17 18 18 17 15 14 14 15 15 15 14 13 13 11 9 8 7 7 7 7 6 7 7 8
4 4 3 2 5 6 4 2 1 3 6 3 2 2 2 3 4 5 8 5 1 9 13 12 14 14 12 8 8 8 8 11 15 20 23 22 24 26 29 29 27 27 27 27 27 25 24 23 22 22 22 22 21 19 20 21 23 28 23 14 16 17 15 18 18 18 18 18 18 18 18 17 16 17 18 18 16 15 14 15 16 15 15 14 13 12 11 9 8 8 8 8 7 5 5 4 7
4 4 3 3 7 6 5 2 2 3 7 4 2 3 2 2 4 2 6 5 4 5 13 13 12 13 11 8 9 9 8 8 9 18 23 23 24 25 28 31 28 25 25 28 28 26 25 24 24 22 22 22 20 19 20 21 25 32 28 20 21 20 18 20 19 20 19 17 18 18 19 18 17 16 16 17 16 15 14 15 16 15 15 14 13 13 13 10 8 8 8 8 7 5 5 5 7
3 5 4 2 4 3 4 5 6 8 6 6 7 4 2 3 4 2 5 4 5 1 7 9 11 13 11 9 10 9 8 7 9 19 22 23 25 25 29 32 29 27 25 26 27 26 25 25 24 22 22 22 20 19 19 20 22 25 27 25 27 26 24 25 23 22 20 18 18 18 18 18 17 15 15 17 17 16 14 15 16 15 15 14 13 13 13 12 10 8 8 8 6 5 5 5 6
10 13 7 2 2 1 6 6 9 11 6 6 9 6 5 6 6 5 5 1 3 0 3 3 7 13 11 8 9 10 7 6 13 22 21 22 26 26 30 31 28 28 26 26 27 25 25 27 26 23 22 21 22 20 18 21 20 18 21 22 25 25 25 25 23 22 20 18 17 17 18 18 16 15 15 17 17 17 14 14 16 16 15 14 12 13 12 13 11 9 7 6 6 6 6 6 7
12 15 10 5 4 4 9 9 11 11 5 5 9 10 8 8 8 6 4 2 1 1 5 3 3 8 11 9 10 10 7 7 16 23 21 22 26 26 30 30 28 29 27 27 27 24 25 29 28 25 23 22 23 21 18 22 20 17 18 17 18 21 22 22 22 22 20 18 17 17 18 17 16 16 16 16 16 16 15 14 16 16 15 13 11 12 13 13 12 9 7 5 6 7 7 7 7
6 11 11 7 3 3 8 13 14 10 4 5 10 13 8 7 6 2 2 4 2 2 5 3 4 3 7 9 12 11 6 7 14 18 18 21 25 26 28 28 28 29 27 27 28 25 25 29 27 25 25 23 24 22 19 21 18 17 17 15 16 18 19 20 20 21 19 18 17 16 17 17 16 16 15 15 15 14 14 14 15 15 14 12 11 12 13 13 12 9 7 7 7 7 7 6 6
4 8 10 7 3 1 5 11 13 7 3 4 9 11 5 4 5 3 2 3 2 3 3 4 4 2 2 5 10 12 8 8 11 12 15 21 24 26 27 26 29 30 27 27 27 25 25 28 26 25 25 23 24 22 19 19 16 16 16 15 17 17 16 17 18 19 19 18 16 15 16 16 15 15 14 14 13 12 14 14 15 15 14 12 12 14 14 13 11 9 8 9 9 7 5 5 6
5 7 8 8 9 6 4 9 11 6 4 7 9 8 3 2 3 3 1 3 4 2 2 5 3 2 2 1 4 10 12 9 10 11 12 18 23 25 25 25 28 30 27 27 27 24 25 28 26 25 24 22 24 23 19 18 17 16 15 15 17 16 15 16 17 17 17 18 17 15 16 15 14 14 13 13 12 11 12 13 13 14 13 12 12 13 13 12 11 9 7 8 8 6 5 4 4
6 5 8 9 14 11 6 9 11 5 4 9 11 6 1 1 2 3 1 4 4 1 2 4 1 1 2 2 3 4 11 11 10 12 10 14 21 22 24 26 29 29 26 26 28 25 24 28 26 25 24 21 22 22 19 19 17 16 14 15 17 16 15 16 18 17 17 18 18 16 16 15 13 13 13 12 11 11 11 11 11 11 12 11 11 11 12 11 9 8 6 6 5 3 4 5 3
6 5 10 12 12 12 10 12 9 5 2 6 8 4 1 3 3 5 2 3 5 3 4 4 1 2 2 1 4 5 8 12 10 11 11 12 19 22 23 26 28 28 26 26 28 25 24 28 26 24 24 22 22 22 20 19 17 16 16 17 19 19 18 18 19 19 19 18 17 16 17 15 13 12 12 11 10 10 11 11 11 11 11 11 11 10 11 11 8 7 6 4 3 2 4 6 4
4 5 15 14 13 13 14 15 9 4 3 10 11 3 3 3 3 5 4 4 6 4 4 5 3 2 2 2 3 5 6 12 11 11 11 13 19 21 21 25 27 27 27 27 27 25 24 28 26 24 25 23 22 22 20 21 19 17 16 16 19 19 19 18 18 19 19 17 16 15 16 16 14 12 11 11 10 10 11 11 11 11 11 11 10 10 10 10 9 7 5 2 2 3 4 6 7
3 6 13 12 14 15 14 16 10 5 6 9 12 4 5 3 1 4 5 5 4 3 4 4 3 4 4 4 4 5 4 10 11 12 11 12 20 22 20 24 27 27 28 27 26 25 25 29 27 24 24 23 23 21 20 22 21 19 16 16 18 18 17 16 16 18 17 16 16 16 16 16 15 13 12 11 10 10 11 12 12 11 10 10 9 9 9 9 8 8 6 4 5 6 3 4 6
3 4 8 7 13 15 15 13 6 3 6 5 9 6 5 2 3 5 6 6 5 4 5 5 4 5 5 4 6 4 1 3 7 12 12 13 20 24 23 24 26 28 29 27 26 26 26 29 27 24 24 22 22 22 21 22 22 20 18 16 17 16 15 14 14 17 17 16 17 16 15 16 16 14 12 11 11 11 11 12 12 11 10 10 9 9 10 8 8 9 8 7 8 6 4 3 5
4 3 6 7 11 11 10 7 3 3 4 4 10 9 5 2 4 6 6 5 5 5 4 4 4 4 4 4 6 4 2 2 2 7 9 14 22 26 25 25 24 27 30 28 26 27 27 28 27 25 24 22 22 22 21 22 22 21 20 17 16 16 15 14 13 16 18 17 17 17 16 16 17 16 13 11 12 12 13 13 12 11 10 10 10 10 10 9 9 10 9 9 8 7 5 4 4
5 6 5 6 9 9 6 4 4 4 1 6 13 10 8 3 4 6 5 4 7 6 4 4 4 4 4 5 7 4 4 3 2 4 4 10 21 27 27 25 24 26 30 29 26 27 29 29 27 26 25 23 22 23 22 22 21 21 21 17 16 17 16 15 14 16 18 19 18 18 17 15 15 16 14 12 12 11 12 13 12 11 11 11 10 9 10 11 11 11 10 9 8 7 6 4 3
4 5 4 3 5 7 5 2 3 2 2 7 13 8 8 3 4 6 4 4 8 8 5 6 6 5 5 6 7 5 4 4 3 4 4 4 13 21 25 25 23 25 30 28 26 28 30 29 28 25 26 24 23 24 23 22 21 21 21 18 16 17 17 18 16 15 18 18 17 18 18 16 15 15 14 13 13 11 11 13 11 10 11 11 10 9 10 12 12 12 11 10 8 8 7 6 4
3 4 4 3 2 3 3 0 2 3 4 6 13 9 6 2 2 5 7 7 7 7 7 9 8 7 7 7 8 4 3 2 3 5 3 2 6 11 19 25 23 23 30 29 26 30 29 29 30 26 26 24 23 25 24 22 22 21 21 20 17 16 16 18 18 16 17 17 17 18 18 17 16 16 16 15 14 13 11 12 12 11 11 10 9 10 11 11 11 12 11 11 11 10 9 8 7
2 3 4 4 3 3 2 1 2 4 5 3 11 10 4 1 1 2 7 8 7 7 7 8 9 9 9 7 6 4 3 3 4 5 5 3 4 4 11 23 23 20 30 31 27 30 30 29 30 28 27 25 23 26 26 24 23 21 22 21 18 17 16 17 18 17 17 16 16 16 16 17 17 17 17 16 14 14 13 12 12 10 10 10 10 9 9 10 11 12 11 10 11 10 9 9 9
5 4 4 4 3 4 4 4 4 4 5 5 10 7 3 5 3 4 7 8 6 8 6 4 6 8 8 7 6 5 5 3 2 4 5 5 5 4 2 17 23 20 27 31 28 31 31 30 31 28 28 27 24 25 27 25 24 22 22 22 20 19 17 16 16 17 17 17 16 16 15 16 16 15 16 15 13 15 15 13 13 11 11 12 12 11 10 10 11 12 11 10 10 9 8 8 8
5 3 2 3 4 4 3 4 7 6 4 4 4 3 2 4 2 1 4 7 5 8 9 6 4 3 4 4 2 2 1 3 3 3 3 4 8 10 9 4 16 17 21 26 27 32 33 30 32 31 28 28 25 26 27 26 25 23 22 22 21 20 19 17 17 16 17 17 16 16 15 15 15 14 14 14 14 16 16 14 13 12 12 12 12 11 11 11 11 12 11 11 10 9 9 9 8
4 3 0 3 4 3 2 2 5 5 3 1 1 5 6 5 5 5 2 6 5 7 11 9 7 7 7 6 3 1 3 3 4 3 4 7 11 8 6 2 5 9 10 10 13 26 35 34 33 33 30 29 26 25 27 26 25 24 23 23 22 21 21 19 19 18 17 17 17 16 15 14 14 14 14 13 13 16 17 15 13 13 12 12 12 12 11 10 11 11 11 11 10 9 9 10 9
1 2 3 5 4 1 1 1 2 1 4 1 4 12 11 6 4 6 8 8 8 8 11 9 8 9 10 7 4 1 1 3 5 6 6 7 7 7 8 4 4 4 6 7 3 8 27 35 34 34 32 30 29 26 26 25 25 25 23 23 22 22 22 21 20 19 17 17 18 17 16 15 15 14 13 13 12 13 16 15 13 13 13 12 11 11 11 10 9 10 10 10 9 9 8 8 9
3 3 4 2 1 2 1 2 2 1 5 3 1 6 7 3 4 11 12 10 10 11 10 9 10 11 9 8 9 8 7 6 6 6 4 3 4 7 6 3 2 3 2 12 6 1 15 28 32 34 34 33 31 28 26 24 24 24 24 24 23 22 23 22 21 20 19 18 18 18 18 17 16 15 14 15 14 13 15 15 13 12 14 13 11 10 11 10 10 9 9 9 8 8 8 8 8
3 3 4 1 2 2 1 2 3 1 5 5 2 2 1 1 0 7 12 11 10 11 10 10 11 11 9 9 9 7 6 6 5 5 4 4 3 2 3 4 3 3 3 7 7 5 12 22 27 28 29 31 30 27 25 24 23 23 22 24 24 23 22 22 21 20 20 20 20 19 19 18 18 17 15 16 17 17 16 16 14 13 14 14 12 12 11 11 11 11 10 9 8 8 9 10 9
1 2 3 3 2 2 2 2 4 3 4 6 5 1 1 1 2 1 7 9 10 11 11 10 10 10 10 10 9 7 6 8 8 7 7 7 6 7 7 7 3 5 4 3 6 12 14 19 23 22 23 27 28 26 25 24 23 22 20 21 24 25 23 22 21 21 21 22 21 20 19 19 19 18 17 16 18 19 19 18 17 16 15 14 14 14 13 12 12 12 12 10 9 10 10 11 10
1 1 3 4 4 2 2 3 3 1 3 5 7 5 1 1 2 0 2 7 11 12 12 12 11 12 10 10 11 9 8 9 10 8 9 10 10 11 13 12 6 3 4 7 2 5 8 12 11 10 14 16 16 20 23 24 24 23 20 19 21 25 25 23 22 21 21 22 22 21 20 20 19 19 19 18 18 19 19 18 17 18 17 16 16 15 15 15 14 13 13 12 12 12 11 11 11
Wind_Direction
167 156 160 151 144 175 227 208 134 47 156 334 297 283 66 76 309 135 124 185 209 191 210 218 111 91 98 109 119 74 35 77 135 126 139 135 148 153 154 158 152 143 147 147 146 150 149 143 137 131 128 126 118 112 114 111 106 102 102 99 95 93 92 91 91 91 90 91 91 93 94 95 93 90 90 91 92 94 94 94 96 99 99 97 98 102 103 103 103 103 100 98 98 97 100 103 105
169 155 160 165 158 159 313 257 102 112 139 330 298 16 76 83 186 190 180 198 209 174 165 104 79 82 96 102 93 69 35 15 92 94 97 131 143 153 153 153 148 147 151 151 151 148 142 138 135 131 129 126 120 120 120 113 108 103 101 97 94 94 93 93 93 93 92 93 93 93 93 92 93 92 91 92 92 91 92 93 92 96 100 101 102 103 106 106 106 107 104 103 101 97 100 104 105
170 153 169 188 181 145 61 336 190 128 122 220 282 91 118 128 168 193 224 234 227 130 105 81 76 77 82 70 55 76 66 25 88 93 112 135 142 153 152 148 146 150 151 150 149 141 137 135 134 132 130 127 125 125 119 111 105 102 103 99 97 95 94 94 95 97 96 95 93 91 90 90 93 94 93 93 94 93 94 97 97 98 101 104 104 105 107 106 107 109 108 107 104 103 106 107 106
183 188 195 188 169 73 113 296 216 105 140 192 118 124 160 168 185 201 226 239 185 96 85 81 74 70 85 88 84 87 92 63 91 101 126 143 147 150 149 146 147 147 147 149 146 141 136 134 135 135 132 130 130 124 114 107 102 102 106 104 103 100 97 97 98 99 97 94 91 91 90 90 93 94 94 95 96 94 96 97 100 101 101 104 104 106 107 107 109 110 111 110 107 110 111 109 106
202 223 248 230 191 76 160 273 223 170 191 183 117 141 166 197 205 203 215 217 124 99 101 102 92 86 84 92 104 94 111 107 99 110 125 141 144 145 147 146 145 143 145 147 147 144 138 136 138 137 133 133 132 121 112 107 106 109 110 109 107 103 99 98 98 99 96 93 91 93 94 95 94 93 94 96 96 96 97 97 99 100 101 104 106 107 106 108 111 112 112 110 112 116 115 111 107
205 237 292 270 151 93 179 291 264 233 208 126 79 140 169 214 224 176 148 140 97 89 100 99 100 97 81 80 85 102 130 124 117 124 129 139 143 144 146 144 143 141 143 147 147 144 139 139 139 137 136 138 132 120 116 113 115 115 113 112 108 103 100 99 100 100 98 95 95 96 97 99 97 96 96 96 96 96 98 99 100 100 102 105 107 108 107 110 113 113 112 111 118 119 115 112 108
181 227 358 94 102 56 187 272 261 259 170 119 20 178 177 216 232 146 124 118 88 85 97 100 108 101 90 99 92 99 114 122 128 133 135 140 142 143 144 143 142 140 144 148 145 140 140 139 137 138 141 140 131 124 124 123 121 117 115 112 107 105 103 102 102 101 100 98 97 98 99 100 98 97 97 96 96 96 99 98 100 102 104 107 109 110 109 111 112 111 112 116 121 118 116 114 109
154 100 296 337 143 252 178 256 249 230 49 87 329 258 185 227 247 147 128 129 112 106 105 106 109 96 91 101 99 105 110 117 127 133 137 139 141 143 143 143 141 141 146 147 142 140 139 138 139 141 142 140 134 132 131 127 122 117 116 113 110 108 107 105 103 102 102 101 100 100 101 101 100 99 96 95 96 97 98 97 100 104 106 108 110 112 112 111 111 111 113 121 122 118 117 114 110
93 50 196 319 194 263 242 248 250 255 6 51 287 272 36 284 299 203 143 140 128 115 107 112 111 101 102 101 99 108 111 120 128 133 137 139 142 142 142 142 141 141 145 144 142 140 139 140 142 142 143 142 139 137 133 129 122 118 118 115 114 111 110 107 105 105 104 103 102 102 102 103 102 100 97 96 96 97 99 99 100 103 106 109 111 113 113 114 114 115 117 121 121 119 117 113 109
63 16 107 284 213 247 223 224 66 309 44 74 272 131 153 209 148 311 189 130 121 113 107 112 106 106 112 105 101 112 120 129 132 134 138 140 140 140 141 142 141 143 145 144 143 141 139 142 145 145 147 145 142 138 135 130 123 121 119 117 117 115 114 110 107 107 108 106 103 103 103 105 105 102 98 97 98 99 100 99 100 103 106 108 111 112 112 114 115 117 120 122 121 118 114 112 110
62 23 102 266 234 264 215 120 145 276 95 135 295 280 206 183 128 277 226 115 107 107 109 110 105 110 112 103 103 121 128 134 135 137 139 138 138 139 140 141 143 147 146 144 143 141 141 145 146 147 147 144 141 138 135 131 127 125 121 120 121 119 116 113 111 111 111 108 105 104 103 106 107 105 103 104 103 101 101 101 102 104 107 109 111 113 114 115 115 119 122 123 123 118 115 114 112
29 77 135 260 217 274 217 117 157 156 111 136 224 262 209 96 64 279 181 114 108 114 118 118 116 116 110 105 117 129 134 137 139 141 140 138 138 138 138 140 143 146 144 142 142 142 143 145 146 146 145 142 139 137 136 134 132 128 122 124 126 120 117 116 117 115 113 111 109 107 106 109 110 109 106 106 105 103 104 103 104 106 109 112 114 116 116 116 118 121 122 124 124 120 118 117 114
95 179 219 270 208 306 319 97 135 141 110 148 197 245 143 94 179 258 167 125 123 122 118 120 124 118 111 116 128 134 138 141 142 142 139 137 137 138 137 138 140 143 143 142 142 143 145 146 147 146 144 140 137 135 137 137 134 130 125 125 122 117 115 117 118 117 116 115 114 111 111 115 114 110 104 102 102 102 105 105 105 107 109 112 116 120 119 119 120 123 124 125 127 125 123 118 114
129 199 233 277 338 15 25 99 146 145 119 191 211 251 85 123 192 241 181 127 121 120 121 127 128 115 114 129 134 139 144 145 145 141 137 135 138 139 136 137 138 142 143 142 143 144 147 148 148 145 144 141 137 137 137 136 133 132 128 124 120 117 116 116 117 118 117 118 117 114 113 115 112 109 106 105 103 102 105 106 106 108 110 112 116 120 121 121 122 124 126 127 130 129 126 120 117
143 203 174 277 18 41 349 111 156 131 153 182 197 217 111 160 173 295 312 113 112 125 125 130 133 120 134 148 141 147 148 147 144 137 136 137 138 137 135 137 138 140 142 141 141 144 150 150 149 147 147 144 140 141 137 134 132 132 129 125 123 121 119 118 118 118 118 119 117 114 113 111 108 107 109 109 107 106 109 109 108 110 112 113 116 119 121 121 122 125 126 128 130 129 127 122 121
199 190 128 280 109 144 214 182 155 124 167 142 224 232 144 112 116 83 276 122 124 134 127 140 149 131 142 146 136 143 145 142 139 136 138 138 137 135 134 136 137 140 141 141 142 147 155 153 152 152 151 147 143 141 137 135 132 133 131 127 126 122 119 121 120 118 118 119 118 118 120 118 112 111 112 111 109 110 115 116 115 115 114 115 118 118 119 121 124 126 127 129 130 129 127 124 122
188 79 296 228 126 199 200 182 167 150 139 125 230 244 135 109 118 194 270 346 130 136 135 145 134 127 135 135 136 140 140 137 136 138 138 135 135 135 135 137 140 143 143 145 146 151 155 153 155 153 151 151 147 142 140 137 133 135 131 128 129 125 122 122 121 120 123 125 127 130 131 128 125 124 122 119 115 114 117 116 117 119 117 117 119 120 121 123 126 127 128 129 130 130 128 125 122
182 109 259 263 121 185 215 173 191 174 122 137 221 268 114 127 155 214 58 6 0 116 129 134 124 130 131 133 136 136 138 138 136 137 134 132 134 135 136 140 143 143 143 145 149 152 151 152 154 148 150 155 149 144 143 142 141 141 133 129 131 129 129 128 127 131 133 130 130 132 130 129 130 128 123 120 116 116 120 116 117 120 118 119 119 120 122 123 124 124 125 126 128 130 130 127 123
196 166 215 278 122 218 265 188 218 197 126 145 192 276 61 107 131 285 109 153 260 102 128 133 125 129 131 135 135 136 141 140 136 137 135 135 137 137 135 139 143 142 144 147 151 153 152 151 151 149 155 160 151 145 144 144 145 144 138 133 132 132 134 134 135 136 134 129 126 127 123 121 122 117 115 117 115 115 119 118 120 120 117 118 120 120 120 120 121 121 124 126 129 132 133 132 127
188 187 235 297 24 322 267 186 235 199 130 142 155 163 71 63 23 20 77 191 174 136 139 132 128 132 137 139 138 142 144 139 139 140 141 142 141 141 141 145 147 147 148 149 151 154 154 152 151 155 159 159 154 149 145 143 144 145 141 138 136 137 137 135 135 133 131 130 129 128 122 119 119 114 113 115 116 119 119 117 119 120 119 124 130 128 124 123 123 125 128 131 134 136 136 135 133
172 147 200 308 8 308 261 182 225 186 121 129 129 126 100 68 45 63 206 221 172 153 136 129 135 139 142 143 144 148 143 140 144 144 145 145 144 145 148 151 151 150 150 149 152 154 153 153 154 156 156 157 158 152 146 145 147 146 142 141 141 141 140 138 137 135 134 134 135 134 127 123 122 118 117 118 119 121 118 116 116 121 127 133 135 132 129 127 125 126 130 135 139 140 141 143 151
132 142 170 201 228 229 256 207 192 152 114 117 126 122 120 102 78 148 172 224 202 138 128 132 137 140 142 143 147 147 142 145 150 150 149 148 149 149 150 155 152 150 151 150 153 154 153 156 156 155 154 156 156 148 143 145 147 145 142 144 144 144 148 145 143 145 142 139 139 138 133 129 127 125 123 120 120 120 119 120 121 125 130 131 130 129 130 131 130 130 134 142 149 154 159 166 174
147 210 170 188 230 209 248 229 162 133 129 117 125 120 129 129 116 157 141 249 265 125 128 136 135 139 141 141 145 144 142 147 154 155 153 153 153 151 154 157 154 151 152 152 154 155 155 159 160 159 157 154 152 147 143 145 148 147 145 148 151 151 152 149 146 149 148 144 141 137 135 134 132 129 124 121 123 127 128 129 129 129 132 130 130 132 137 139 143 144 143 147 156 169 177 178 182
188 192 170 186 212 182 187 223 54 83 115 106 107 96 117 133 125 174 192 231 255 128 129 134 135 141 141 142 145 141 144 151 156 155 152 152 149 150 154 153 153 152 151 154 155 155 157 161 164 161 158 155 153 151 147 148 152 154 153 155 157 155 154 152 151 151 149 146 142 139 138 135 130 128 127 130 136 140 141 140 137 136 135 133 134 142 149 147 155 161 156 155 165 179 180 176 179
207 179 167 186 185 179 186 181 82 76 97 111 113 93 119 145 127 172 208 226 211 132 130 133 137 141 140 143 142 143 152 155 156 154 151 148 145 149 150 147 151 151 152 156 155 156 157 160 163 159 157 157 156 155 149 151 161 164 164 162 158 155 154 153 153 155 153 145 141 142 142 137 133 133 135 138 142 146 149 147 147 147 143 141 141 145 151 158 172 175 170 176 183 182 185 173 154
215 190 163 179 177 177 175 155 121 100 84 124 116 92 122 159 113 158 241 221 150 131 133 137 141 142 144 145 144 151 159 156 154 155 151 145 145 148 146 146 150 150 152 157 157 157 157 158 162 157 155 156 157 157 154 158 164 164 167 167 161 157 156 153 152 156 159 153 148 147 146 143 138 136 138 141 145 146 144 146 151 153 153 153 151 154 165 181 181 176 178 182 176 167 172 168 150
194 261 133 156 160 166 163 151 139 110 45 55 110 91 66 68 40 175 233 194 140 133 137 141 144 144 148 149 150 159 160 155 154 152 146 143 148 147 145 149 150 151 152 154 157 158 157 157 160 158 156 156 157 160 161 163 163 160 165 164 162 159 155 152 151 156 165 163 158 153 147 142 133 129 135 138 140 142 139 143 150 153 160 164 163 165 171 180 174 169 173 170 167 165 160 157 152
146 283 90 125 136 157 156 143 140 118 44 10 104 82 8 45 21 249 189 172 146 137 140 146 148 148 152 153 157 165 158 155 156 153 145 148 151 146 148 151 151 155 154 155 157 156 158 157 159 161 158 156 157 159 159 160 160 161 163 160 158 158 153 150 150 156 164 164 157 152 147 143 137 137 143 135 134 139 140 148 159 163 167 167 167 166 164 167 162 158 163 165 166 166 156 152 154
152 153 109 126 139 141 142 138 134 110 87 164 105 74 355 38 265 241 168 169 152 138 147 153 152 154 151 154 162 162 157 158 159 155 149 150 148 145 149 150 151 156 152 153 157 156 156 157 160 162 159 158 159 154 151 153 155 157 158 153 154 159 157 151 150 154 162 166 162 159 156 154 151 151 158 164 161 156 156 168 176 173 165 163 166 164 164 164 161 156 157 164 162 160 157 149 151
162 145 127 137 130 120 153 159 121 93 106 177 109 90 257 265 237 224 166 188 161 142 153 156 154 156 148 157 167 160 162 160 156 154 149 148 147 148 149 147 153 152 144 149 156 156 155 154 158 161 159 158 155 151 151 154 152 152 156 151 151 157 157 154 153 152 156 162 164 162 161 160 158 159 166 173 169 163 165 170 170 165 157 158 162 164 167 164 161 158 155 165 164 160 157 148 148
172 149 144 137 118 138 168 158 127 112 228 212 114 123 208 256 249 347 352 213 164 148 157 157 153 150 147 161 165 158 161 151 147 147 145 146 148 149 147 148 152 146 144 151 156 156 153 152 155 157 156 154 154 154 156 158 154 154 156 148 143 147 152 159 159 155 154 156 160 162 161 160 160 163 167 166 164 161 160 158 156 155 153 155 160 163 167 162 159 161 159 168 168 156 152 152 151
178 156 142 85 113 141 140 177 147 130 176 221 105 121 187 264 289 348 337 294 166 158 156 155 151 143 148 164 159 152 153 150 147 145 146 147 148 148 147 149 148 144 149 156 156 154 152 153 154 155 156 153 156 156 156 158 154 157 154 143 144 143 150 162 158 156 160 159 161 164 162 160 162 167 168 162 158 157 156 155 154 154 156 158 159 161 165 163 160 164 163 166 164 154 156 161 158
192 153 124 96 131 145 162 219 244 117 141 189 297 137 150 266 249 293 308 325 192 166 154 154 153 142 152 164 153 149 153 162 153 149 153 148 147 151 149 149 147 146 153 157 156 154 153 156 154 156 159 157 158 157 157 154 151 156 151 138 151 151 153 160 154 159 167 165 164 167 166 165 166 165 166 162 157 154 160 163 160 160 162 160 156 155 160 161 156 157 156 159 158 147 147 148 154
204 146 115 133 140 153 174 169 261 169 142 155 201 159 142 209 187 275 307 340 2 174 159 159 153 139 154 164 149 153 163 174 153 148 155 152 153 155 148 147 148 152 157 156 155 154 154 154 152 157 159 158 159 156 155 150 149 154 149 147 160 160 164 164 160 166 172 170 167 167 168 172 169 161 160 163 159 156 161 164 163 164 162 158 157 156 159 162 157 150 147 149 149 141 145 132 138
167 110 81 90 124 145 181 163 178 174 150 158 160 165 170 125 101 25 292 339 13 218 158 155 152 138 155 165 148 158 170 169 140 147 158 156 155 152 144 146 151 156 157 153 153 153 153 152 153 158 157 158 161 153 149 148 149 151 149 155 163 166 171 170 166 171 173 172 169 166 168 176 174 164 161 164 162 163 164 162 162 163 160 158 160 159 160 164 159 148 142 137 132 136 149 128 120
109 109 100 92 100 173 208 176 160 162 155 163 156 158 169 139 132 187 230 354 32 322 70 105 150 141 158 169 152 158 170 164 139 150 166 160 155 151 144 147 151 154 155 154 153 153 154 154 155 157 157 161 161 153 150 152 152 152 151 155 159 163 168 165 165 168 169 171 169 166 169 176 175 167 166 168 166 167 167 161 161 161 161 161 161 156 155 161 159 151 148 138 135 145 146 117 106
113 118 119 137 155 186 197 166 161 177 169 156 144 140 165 167 162 190 190 131 166 121 76 64 104 139 166 166 151 156 168 161 143 156 172 159 152 149 144 147 149 150 153 154 154 155 157 157 155 158 161 164 162 157 156 158 157 158 157 155 157 160 160 158 162 164 166 170 166 166 171 173 173 168 168 170 170 171 170 163 162 163 161 159 159 153 147 152 154 155 163 157 144 143 140 121 115
141 123 122 135 146 193 179 156 166 187 152 133 129 127 167 182 155 200 169 146 171 95 97 96 55 99 178 163 151 156 170 162 146 161 171 152 145 145 143 146 147 148 152 153 156 157 157 156 156 161 163 166 166 160 160 163 161 160 159 158 160 160 158 156 160 161 163 167 165 167 170 172 174 172 169 169 170 172 170 164 162 165 163 156 153 150 147 147 147 158 171 159 135 124 128 127 137
191 132 128 133 131 231 184 158 164 170 117 133 127 125 164 167 138 208 218 123 84 76 100 103 81 68 188 155 153 157 169 168 153 165 166 149 144 143 143 145 146 149 152 154 158 158 157 158 159 164 166 169 168 162 163 164 159 160 161 162 163 160 159 158 157 161 162 163 166 167 169 171 172 172 172 170 171 172 169 164 162 163 161 155 152 151 154 150 148 164 166 145 130 124 133 143 159
228 157 137 144 164 183 185 162 166 162 130 136 120 108 119 109 134 199 216 76 56 22 77 81 98 174 138 115 173 165 165 166 160 166 162 149 147 144 145 146 147 150 153 156 161 162 161 162 163 167 169 171 169 164 167 166 158 163 167 167 166 161 161 158 154 160 163 159 164 170 171 172 171 172 176 175 173 171 169 165 162 163 161 158 159 155 153 152 152 161 156 144 144 148 170 175 183
239 183 141 149 164 169 176 167 163 135 104 129 117 91 61 222 164 151 147 105 97 266 127 85 339 277 81 58 294 200 165 163 164 167 163 150 149 149 148 148 149 153 156 159 166 170 166 165 169 172 169 170 170 167 168 169 165 168 166 155 157 159 161 160 155 157 161 160 167 174 172 172 172 171 174 177 174 168 169 170 164 164 164 164 168 159 151 154 155 154 148 151 156 160 197 195 195
240 206 145 144 150 152 165 165 151 107 92 167 151 112 62 242 185 151 186 144 142 204 163 130 216 301 18 128 277 272 175 164 165 167 167 150 149 153 150 149 152 156 160 164 170 175 171 169 172 174 171 172 174 170 168 171 169 166 161 150 151 155 158 165 164 160 162 166 170 173 170 171 176 173 173 178 176 167 166 170 164 161 162 164 166 157 153 159 156 152 152 156 154 148 196 187 164
244 183 141 146 146 145 164 165 157 145 167 197 197 160 104 199 205 149 180 182 160 175 152 151 183 200 257 216 234 271 191 167 164 166 170 153 150 157 153 152 156 160 165 168 171 176 176 172 173 174 174 175 177 175 172 173 171 166 162 158 159 161 162 170 173 169 170 170 172 172 168 171 181 183 178 177 179 172 165 165 164 162 163 164 161 158 162 163 156 157 159 175 215 195 192 179 168
219 142 138 157 146 145 176 177 177 183 144 182 203 172 99 167 185 121 158 179 167 163 155 169 190 196 225 232 241 265 199 170 166 165 170 158 154 160 160 158 160 163 168 170 174 179 179 176 176 176 174 176 179 178 176 176 176 170 163 160 164 165 166 169 175 178 175 171 174 173 166 171 183 189 184 177 178 176 168 164 163 163 167 169 166 167 170 165 165 177 179 196 208 197 176 148 158
239 134 144 162 136 150 189 185 183 180 119 159 197 157 92 119 138 145 163 164 174 191 188 190 195 204 218 228 246 261 170 159 166 166 171 163 157 163 165 163 163 165 170 173 177 180 179 178 180 179 177 179 181 179 179 180 180 174 166 164 166 165 167 170 177 184 179 173 174 172 171 176 179 186 190 184 177 176 175 170 165 165 173 177 176 176 176 177 184 188 189 198 201 192 179 147 149
244 221 181 160 134 157 200 191 135 114 108 181 193 162 116 109 151 162 162 163 189 192 188 201 195 203 223 234 252 244 125 76 112 148 164 164 162 164 166 168 168 168 171 176 178 179 178 177 180 182 181 182 183 182 181 182 183 180 173 171 172 168 167 171 175 180 180 176 173 172 177 179 177 184 192 187 180 178 177 177 174 172 179 186 185 184 188 190 189 188 191 195 191 184 182 174 168
214 215 218 188 150 153 209 227 121 120 190 203 196 169 125 133 180 171 164 173 184 169 168 203 189 194 221 237 255 238 151 136 96 92 113 156 162 163 166 172 175 170 171 176 177 176 176 176 179 183 184 185 186 185 182 182 185 183 178 175 177 173 170 171 170 169 174 175 174 178 180 179 182 188 189 187 186 183 178 180 182 179 184 191 189 191 193 185 185 195 195 184 182 192 190 178 186
233 203 218 203 156 147 185 244 82 127 258 192 186 154 92 105 184 179 180 155 157 150 165 203 198 200 220 226 236 224 158 150 145 106 82 126 153 160 165 172 179 173 169 174 174 172 175 177 179 182 185 187 189 187 185 185 185 185 181 178 181 181 173 173 174 167 169 174 176 180 181 181 187 190 190 192 193 188 182 185 187 182 183 189 189 190 188 185 194 201 194 186 191 203 198 187 196
256 214 195 157 144 144 162 134 87 186 259 190 167 131 68 44 124 154 154 133 136 143 166 193 195 198 209 217 219 198 133 161 158 125 128 144 138 154 167 173 180 175 169 172 171 169 173 177 179 182 185 188 189 188 188 187 186 187 185 181 185 187 177 176 180 173 170 176 177 179 180 183 189 191 193 199 197 192 185 186 192 187 184 189 188 188 191 197 205 199 191 197 201 200 201 201 205
268 225 183 141 140 138 140 189 163 198 252 188 135 111 80 101 42 135 132 116 122 134 162 189 194 199 199 207 206 159 140 203 187 140 152 173 131 132 170 175 179 175 170 173 171 170 173 177 180 184 186 189 190 189 189 189 189 190 189 187 187 189 183 177 181 180 177 179 181 184 185 187 193 196 198 201 199 198 197 193 196 194 189 192 190 192 200 202 200 194 194 204 201 199 204 205 207
242 239 165 139 154 150 161 188 176 207 226 146 115 110 150 160 174 192 132 115 128 128 133 168 185 197 187 182 189 163 148 161 147 138 155 162 136 86 141 177 178 174 171 174 171 170 174 177 181 185 187 190 192 191 191 191 192 192 193 191 190 191 188 181 182 185 186 185 186 192 193 194 200 201 202 205 199 202 207 201 202 204 194 194 199 201 203 198 193 190 194 201 201 202 203 204 208
240 262 124 165 196 168 180 194 185 196 185 126 108 91 105 110 73 317 117 113 125 125 119 117 126 144 141 128 101 55 114 130 113 123 137 103 74 43 21 168 181 175 172 177 174 172 174 177 182 185 188 190 192 193 192 193 194 194 195 195 194 195 192 188 186 187 191 190 190 194 197 201 206 204 203 209 205 205 209 204 203 207 198 197 205 205 198 197 194 191 194 201 203 204 203 206 214
242 263 304 262 240 186 208 237 212 193 136 101 152 103 99 89 49 316 228 130 125 133 128 129 133 110 83 78 72 311 244 168 126 97 85 66 53 33 358 350 184 171 159 164 168 174 177 178 182 185 188 190 192 194 194 194 195 195 197 197 197 198 197 195 192 190 193 194 192 195 198 202 206 202 203 210 211 209 210 206 201 205 205 206 212 208 199 204 207 203 203 202 201 205 204 205 215
131 285 320 320 323 331 103 130 260 199 111 147 163 139 146 144 133 204 196 147 138 138 124 122 122 101 87 84 76 37 16 48 49 49 67 95 113 188 223 253 223 179 152 157 128 172 180 180 183 184 186 189 192 194 194 195 196 197 198 199 199 201 201 200 198 195 197 197 195 196 199 202 202 201 203 205 210 208 205 205 202 203 210 214 216 211 202 208 220 215 210 206 203 206 209 210 216
43 331 314 337 1 317 16 128 244 155 113 110 96 136 151 136 143 167 162 146 139 128 112 101 90 81 79 70 53 48 56 46 24 18 25 90 142 189 206 247 297 7 170 181 167 135 180 179 183 185 186 189 190 192 194 194 197 198 199 200 201 204 204 204 203 201 201 201 199 198 201 203 202 203 205 202 206 208 201 202 204 206 213 215 217 218 209 208 221 221 215 219 217 210 217 224 224
19 323 304 205 167 227 224 177 209 158 121 130 90 339 264 355 36 156 148 144 135 120 110 96 83 75 69 64 55 45 58 62 39 20 10 0 5 33 92 72 27 358 272 205 179 192 186 177 180 185 187 188 188 190 191 193 197 199 201 202 202 204 206 206 206 205 206 206 205 205 205 205 205 206 208 207 208 209 204 204 206 210 215 215 213 218 219 214 219 223 220 227 230 219 224 232 232
174 257 269 253 233 262 286 250 213 170 129 138 133 122 237 96 23 122 138 134 124 115 109 96 86 81 67 63 62 41 44 62 47 30 21 18 29 42 66 86 144 209 254 280 206 205 197 183 182 183 184 183 183 186 188 189 194 195 200 204 204 205 206 207 209 210 211 210 210 212 210 208 210 208 207 212 213 210 209 209 210 212 215 217 217 218 221 222 224 226 223 224 232 236 237 236 235
216 217 227 239 228 216 281 290 263 150 103 136 140 119 63 83 105 142 174 130 117 110 106 100 93 90 77 65 65 49 44 56 45 34 22 23 48 52 52 67 94 145 55 36 94 186 195 193 187 175 178 176 172 180 187 191 193 193 195 202 206 207 207 207 209 213 216 214 212 215 214 211 213 213 209 213 217 212 210 212 214 214 214 218 223 222 220 223 227 230 228 222 226 238 243 239 239
Height
776 777 777 779 779 781 784 785 801 803 803 816 808 804 801 796 795 791 797 798 793 785 777 774 766 767 776 786 791 790 792 794 796 808 818 810 806 813 814 816 818 819 821 822 823 824 825 826 827 827 829 829 830 830 831 831 830 830 831 832 832 833 833 833 834 834 835 835 836 837 838 838 838 838 839 839 839 839 840 841 842 843 844 844 844 845 845 845 846 847 848 848 849 849 849 850 851
776 777 777 780 779 784 788 786 806 811 810 819 807 802 799 795 797 794 794 791 784 773 766 767 766 770 774 778 778 784 796 793 786 794 802 803 809 814 814 817 818 819 821 822 823 824 825 826 827 828 829 830 830 831 832 831 831 831 831 832 833 833 834 834 835 835 836 836 837 837 838 838 838 839 839 840 840 841 841 842 843 844 844 845 845 846 846 847 848 848 848 849 849 850 850 851 851
776 777 777 781 781 784 788 791 808 815 817 820 808 800 796 797 797 794 790 782 771 762 763 767 770 774 775 783 784 791 805 797 787 793 801 806 809 812 816 817 818 820 821 822 824 824 826 827 828 829 829 830 831 831 831 831 830 831 832 833 834 834 835 835 835 836 836 837 837 838 838 838 839 839 840 841 841 842 842 842 843 844 845 845 846 847 847 848 849 849 849 850 850 851 851 852 853
776 778 778 781 785 788 793 801 807 811 817 815 810 802 795 797 794 791 786 776 766 761 767 771 778 776 776 793 793 794 806 801 794 795 802 807 808 811 815 817 819 820 822 823 824 825 826 827 828 829 830 831 831 831 830 830 830 831 833 834 835 835 835 836 836 837 837 837 837 838 839 839 840 840 841 842 842 843 843 844 844 845 845 846 846 847 848 849 849 850 850 851 851 852 853 853 854
776 779 779 780 789 792 797 804 804 809 812 805 807 804 796 795 791 788 781 772 765 764 770 773 784 779 776 789 790 798 806 802 800 798 801 807 809 812 815 817 819 820 823 824 825 826 827 828 829 829 830 830 830 830 830 831 832 833 835 835 836 836 836 836 837 837 837 838 838 839 840 840 841 842 842 843 843 843 844 845 845 845 846 847 847 848 849 849 850 850 851 852 853 853 854 855 855
776 778 779 779 786 789 798 807 805 807 801 795 801 799 795 793 787 783 776 770 765 765 769 774 783 783 786 789 788 796 799 798 802 801 802 807 810 813 816 818 819 821 823 824 826 827 827 829 829 829 829 830 831 831 831 833 834 835 836 836 837 837 837 837 837 838 838 838 839 840 841 842 842 843 843 843 844 844 845 845 846 846 847 847 848 849 849 850 851 851 852 853 854 854 855 856 856
776 780 782 784 788 789 803 810 805 804 794 790 795 792 791 787 781 777 775 774 772 770 770 775 777 783 795 793 793 796 794 796 798 802 804 807 811 814 816 818 820 822 823 825 826 827 828 828 829 830 830 831 831 832 833 835 836 836 837 837 837 837 838 838 838 839 839 839 840 841 842 843 843 844 844 844 845 845 846 846 847 847 848 848 849 850 850 851 851 852 853 854 855 855 856 856 857
776 782 785 791 797 797 805 808 800 799 792 788 790 788 787 783 779 777 776 778 778 776 775 778 775 787 800 794 801 800 795 799 798 803 806 808 812 814 817 818 820 822 824 825 826 827 828 828 829 830 830 832 832 834 835 836 837 837 837 837 838 838 838 839 839 840 840 841 842 842 843 844 844 845 845 846 846 846 847 847 848 848 848 849 850 850 850 851 852 853 854 855 856 856 857 857 858
776 783 788 794 802 803 805 805 799 796 792 791 790 786 785 783 782 779 777 776 776 777 779 780 777 789 803 799 805 801 797 803 802 806 807 810 813 815 818 819 821 822 824 825 826 828 828 829 829 830 831 832 834 835 836 837 837 837 838 838 838 839 839 840 840 841 841 842 843 843 844 845 845 846 847 847 847 847 848 849 849 849 849 850 851 851 851 852 853 854 855 856 857 857 858 858 859
780 785 791 797 802 807 808 804 801 797 793 794 792 786 787 783 781 782 777 775 775 778 780 778 779 789 801 805 807 802 801 805 804 808 809 811 813 816 819 820 821 821 824 825 826 828 828 830 830 831 832 833 835 836 837 837 838 838 838 839 839 839 840 841 841 842 842 843 844 845 845 846 847 847 848 848 848 849 849 850 850 850 851 851 852 852 853 853 854 855 856 857 857 858 859 860 860
787 788 791 800 805 810 808 805 804 798 793 792 791 787 786 779 778 783 778 775 774 779 781 780 788 792 799 807 808 804 803 806 806 808 810 812 815 817 819 821 822 822 823 825 827 828 829 831 831 832 833 835 836 836 837 838 838 839 839 839 839 840 841 841 842 843 843 844 845 846 847 847 848 848 849 849 849 850 850 851 851 852 852 852 853 854 854 855 856 856 857 857 858 859 860 861 861
792 794 794 804 806 806 802 803 805 798 794 793 795 789 781 779 783 787 780 778 778 782 783 782 789 790 801 812 807 805 805 807 808 808 811 813 815 818 820 822 823 823 824 825 827 828 829 831 832 834 834 836 836 837 838 838 839 839 840 840 840 841 841 842 843 844 844 845 847 847 848 848 849 849 850 850 850 851 852 852 852 853 853 854 854 855 855 856 857 858 858 859 859 860 861 862 863
792 795 798 805 800 801 800 801 804 801 800 795 796 787 777 784 789 787 780 777 778 785 785 780 783 786 802 811 805 805 806 808 808 810 812 813 816 818 821 822 824 825 825 826 827 829 830 832 833 834 835 836 836 837 838 838 839 840 841 841 841 841 842 843 843 844 845 846 848 848 849 849 850 850 851 851 852 852 853 853 853 854 855 855 855 856 857 857 858 859 859 860 861 862 863 863 864
788 791 797 803 796 798 799 801 804 804 803 793 791 784 778 783 782 780 777 778 781 782 781 776 779 789 803 808 809 808 806 808 808 810 812 814 817 819 822 824 825 826 827 828 828 830 830 832 834 835 835 836 837 837 838 839 840 840 841 841 842 842 842 844 845 846 846 847 848 849 850 850 851 851 852 853 853 854 854 854 855 856 856 856 857 857 858 858 859 860 861 861 862 863 864 865 865
785 788 793 800 799 799 798 800 801 802 801 790 788 784 781 778 773 777 775 778 782 772 774 777 777 789 803 807 810 807 803 807 808 810 813 815 818 820 823 824 826 827 829 829 830 831 831 833 834 835 836 836 837 837 838 839 840 841 841 842 842 842 843 844 846 847 847 848 849 850 851 852 852 852 853 854 854 855 855 855 856 857 857 858 858 858 859 859 860 861 862 862 863 864 865 866 866
781 786 794 801 802 802 799 797 798 803 799 789 787 783 783 778 772 780 773 770 777 769 773 782 779 785 796 800 802 800 801 806 808 811 813 816 819 821 824 825 828 829 830 831 831 832 832 833 834 835 836 836 837 837 838 839 840 841 842 842 842 843 844 845 846 847 848 849 850 851 852 852 853 854 854 855 855 856 856 857 858 858 858 859 860 860 860 861 862 862 863 864 865 866 867 867 867
779 787 798 802 803 803 797 795 797 799 794 789 789 783 784 783 776 775 767 766 774 773 776 780 779 782 789 794 796 797 802 806 808 812 813 816 819 821 824 826 828 829 831 832 832 833 833 834 834 835 836 836 838 838 839 839 840 842 842 843 843 844 844 846 847 848 849 850 850 851 852 853 853 854 855 856 856 857 857 858 859 859 860 861 861 861 862 862 863 863 864 865 866 867 868 868 869
783 791 799 800 800 799 790 788 787 784 788 790 790 783 781 785 781 772 772 781 779 775 779 779 780 784 787 791 796 799 803 806 809 812 814 816 818 821 824 826 827 828 830 832 833 833 834 835 835 836 836 837 838 839 839 839 841 842 843 844 844 845 846 847 847 848 849 849 850 851 852 853 854 855 855 856 857 858 859 859 860 861 861 861 862 862 863 864 864 865 865 866 867 869 869 869 870
786 791 798 797 793 789 782 781 779 778 785 787 786 781 780 784 781 773 781 793 785 782 785 783 786 789 790 793 797 801 804 807 809 812 814 816 819 820 823 825 827 828 829 831 833 834 834 836 836 836 836 837 837 838 839 840 841 842 843 844 845 846 847 848 848 849 849 850 851 852 853 854 855 856 857 857 858 859 860 861 862 862 862 862 863 864 865 866 866 866 867 868 869 869 870 870 871
785 788 797 793 785 784 778 776 776 774 777 782 784 780 781 785 784 783 788 792 786 787 786 786 792 793 793 794 796 801 804 807 810 812 815 817 819 821 823 825 826 828 830 831 833 834 835 836 837 837 837 837 837 838 839 840 841 842 843 844 845 846 848 849 849 850 850 851 852 853 854 855 856 857 857 859 859 860 861 862 862 863 863 863 865 866 866 867 867 867 868 869 869 870 871 871 872
783 786 794 788 782 786 779 774 774 770 771 778 781 782 786 784 785 791 795 795 791 786 782 784 790 791 792 793 795 800 803 807 810 813 815 817 820 822 824 825 827 828 830 832 833 835 836 837 837 838 838 838 838 838 839 840 841 842 843 844 845 846 848 849 849 850 850 851 852 853 854 856 857 857 858 859 860 861 862 862 863 863 864 865 866 866 867 868 868 869 870 870 870 871 871 872 873
781 784 786 783 782 787 780 771 772 769 770 776 780 785 787 783 785 791 792 796 790 779 778 780 784 786 789 791 794 798 802 806 809 812 815 817 820 822 824 826 828 829 830 832 834 835 837 837 838 838 839 839 839 840 840 840 841 842 843 844 845 846 847 848 849 850 851 851 852 854 855 857 858 858 859 859 860 861 862 863 864 865 866 866 867 867 868 869 870 871 871 871 871 871 872 872 873
783 785 781 782 781 782 779 772 770 769 772 778 779 781 782 785 791 789 789 791 782 772 774 778 781 784 787 790 793 797 801 804 807 810 813 816 819 821 824 826 828 829 830 832 833 836 837 838 838 839 839 840 840 841 841 841 842 842 843 844 845 846 847 848 849 850 851 852 853 854 856 857 858 858 859 859 860 861 862 863 865 866 866 867 867 868 869 869 870 871 872 872 872 872 872 873 873
779 785 780 780 779 778 777 773 771 770 774 777 775 777 782 790 794 791 789 786 777 771 773 777 781 784 787 791 794 797 801 804 806 808 811 814 817 820 823 825 827 829 830 832 834 835 837 838 839 839 840 840 841 842 842 842 843 843 843 844 845 847 848 849 850 851 852 852 853 855 856 858 858 858 859 860 861 862 863 863 864 866 866 868 868 869 870 870 871 872 872 873 873 873 872 873 873
772 778 779 777 779 777 775 774 773 772 774 774 776 782 786 788 790 790 788 782 775 772 774 778 782 786 789 793 795 798 801 803 805 807 810 813 816 820 822 824 826 829 831 832 834 835 837 838 839 840 841 841 842 842 843 844 844 844 844 845 846 847 848 849 850 851 852 853 854 856 857 858 859 859 860 861 861 862 863 864 865 866 867 868 869 870 871 871 872 872 873 873 873 873 873 873 874
765 767 775 775 777 775 775 777 776 776 775 774 780 788 787 783 785 789 783 777 774 772 777 782 785 789 792 794 796 799 800 802 804 807 809 812 816 819 821 824 826 828 830 832 834 836 837 838 840 841 841 841 842 843 843 844 845 845 845 846 847 848 848 849 851 852 853 854 855 857 858 859 860 860 860 861 862 863 863 864 865 866 868 869 870 871 872 872 872 873 873 873 873 873 874 874 874
757 761 768 771 777 776 775 779 778 778 779 778 783 791 787 780 787 795 783 773 773 775 782 784 787 793 794 795 796 798 800 801 803 806 809 812 815 818 820 823 826 828 830 832 834 835 837 839 840 841 842 842 843 843 844 845 845 845 846 846 847 848 849 850 850 852 853 854 855 857 859 860 860 860 859 860 862 863 864 865 866 867 868 870 871 871 872 873 873 873 873 873 873 873 874 874 874
756 763 769 773 779 780 776 780 781 779 784 783 782 789 788 784 793 797 782 772 773 778 785 787 789 793 794 795 796 797 799 800 803 805 808 811 814 816 820 822 824 827 829 831 833 835 837 839 840 841 842 843 844 844 844 845 845 846 846 847 847 848 849 850 851 852 854 855 856 857 859 860 861 861 861 860 861 863 864 865 867 868 870 870 871 872 872 873 873 874 874 874 874 874 874 874 874
757 765 778 783 781 785 783 782 780 780 787 783 780 795 798 794 799 792 778 773 773 779 787 788 791 792 794 795 796 797 797 799 802 804 806 810 813 815 818 821 823 826 828 830 833 835 837 839 840 841 843 844 844 845 845 845 846 845 847 848 849 849 850 850 851 853 855 856 857 858 860 861 862 864 865 865 866 867 867 867 868 869 870 871 872 873 873 873 873 874 874 874 874 874 874 874 874
758 767 780 788 791 796 790 784 781 782 789 781 784 810 813 799 796 789 780 776 776 783 788 788 791 791 793 795 796 797 796 798 800 802 806 808 812 814 817 821 822 825 827 830 833 835 837 838 840 841 843 844 844 846 846 846 847 846 847 848 850 851 851 851 852 854 856 857 859 859 860 862 863 865 867 868 869 870 870 869 869 870 871 871 872 873 873 873 874 874 874 874 874 874 874 874 874
757 771 779 785 800 804 788 781 784 789 791 782 788 814 816 799 791 788 783 779 779 786 789 788 790 791 793 795 796 797 796 797 799 801 804 807 810 813 816 820 822 824 826 829 833 834 837 838 840 842 843 844 845 846 847 847 848 847 847 847 849 851 852 853 854 855 857 858 859 860 861 863 864 865 867 868 868 869 870 869 870 870 871 871 872 872 873 873 874 874 874 874 874 874 874 874 875
753 773 788 788 798 804 790 781 782 790 792 784 792 811 813 800 792 789 786 782 781 786 788 787 789 791 794 795 795 797 796 796 798 801 804 806 809 812 815 819 821 824 826 829 832 834 837 838 840 842 843 844 845 847 848 848 849 850 849 848 848 849 851 854 855 856 858 859 860 861 862 863 864 865 866 867 868 868 869 869 870 870 871 871 872 872 873 873 873 874 874 875 875 875 875 875 875
756 769 792 795 798 805 798 788 782 785 791 791 795 806 810 801 792 791 788 785 785 786 788 788 789 791 793 795 795 796 797 797 798 800 803 806 808 812 814 817 820 823 826 828 831 833 836 838 840 842 843 845 846 847 849 849 851 852 852 852 850 850 852 854 855 857 859 860 861 862 862 863 864 865 866 867 868 868 869 869 870 871 871 871 871 872 872 873 874 874 874 874 875 875 875 875 874
764 767 787 792 794 801 801 797 787 782 791 797 797 801 806 801 793 794 791 786 788 788 787 788 788 791 793 794 795 796 798 799 798 799 802 805 807 811 813 816 819 823 826 828 830 832 835 837 840 842 843 845 846 847 849 850 852 853 854 855 854 854 855 856 856 858 860 861 861 862 862 863 864 865 866 867 867 868 869 869 870 870 871 871 871 872 872 873 873 874 874 874 875 875 874 874 874
769 777 792 796 793 799 801 797 789 784 790 797 801 804 805 804 800 799 795 788 790 790 787 787 788 791 793 794 795 797 798 798 798 798 801 804 806 810 812 815 819 822 825 827 829 832 834 836 839 841 843 844 846 847 849 850 852 853 854 856 856 857 858 858 858 859 860 861 861 862 862 862 863 864 865 866 867 868 868 869 870 870 871 871 871 872 872 873 873 874 874 874 874 874 874 874 874
768 778 792 801 799 802 798 788 782 783 791 798 804 808 805 807 806 801 795 790 792 792 789 790 789 790 793 794 795 796 798 798 796 797 800 803 806 809 811 814 818 821 824 827 829 831 833 835 838 840 843 844 846 847 848 850 852 853 854 856 857 858 858 858 859 860 860 861 861 862 862 862 863 864 865 865 866 867 868 869 869 870 870 871 871 872 872 873 873 873 874 874 874 874 874 874 874
764 773 785 796 798 801 794 785 782 779 790 799 800 807 806 804 805 798 794 793 793 793 792 793 793 792 793 793 795 796 797 796 794 797 800 802 805 808 811 814 817 821 824 826 828 830 832 834 836 839 841 844 845 846 848 849 850 852 853 854 856 856 857 858 859 860 860 861 861 862 862 862 863 864 864 865 866 867 868 869 869 870 870 871 871 872 872 873 873 874 874 874 874 873 873 873 874
759 771 782 791 793 795 785 780 781 775 786 797 795 806 809 801 802 799 794 796 796 794 794 795 795 794 793 793 795 796 795 794 794 797 799 801 804 807 810 813 816 820 823 826 828 830 832 833 835 838 840 842 844 846 847 849 850 851 852 853 855 856 857 858 859 860 860 861 861 862 862 862 863 863 864 865 865 866 868 869 869 870 870 871 871 872 872 873 873 874 874 873 873 873 873 873 874
756 768 782 790 792 796 788 776 778 777 786 797 795 807 812 802 801 798 795 797 796 794 793 794 795 795 795 794 794 794 796 796 795 797 798 800 803 806 810 813 816 819 822 825 828 830 831 833 835 837 839 841 843 845 847 848 850 851 852 853 854 855 856 858 859 859 860 861 861 862 862 862 863 863 864 864 865 866 867 868 869 870 870 871 871 872 872 873 873 873 873 872 872 872 873 873 874
753 763 779 789 787 798 799 784 781 779 782 792 796 807 813 808 804 800 799 798 796 796 794 792 793 793 795 795 794 794 795 797 797 797 797 799 803 806 809 812 815 819 822 825 827 830 831 832 834 836 838 840 842 844 846 848 849 851 852 853 854 855 857 858 859 860 860 861 862 862 863 863 863 863 864 864 865 866 866 867 868 869 870 870 871 871 872 872 872 872 872 872 872 872 873 873 873
751 752 768 780 778 786 790 782 780 781 783 787 796 816 820 811 810 808 803 800 800 802 798 796 794 792 793 794 794 793 793 795 797 797 797 798 802 805 808 812 815 818 821 824 826 829 830 831 833 835 837 839 841 843 845 847 848 850 851 852 854 855 856 858 859 860 860 861 862 862 863 863 863 864 864 864 865 865 866 867 867 868 869 870 870 870 871 871 871 871 871 872 872 872 873 873 873
753 746 751 761 767 776 781 779 783 798 807 793 792 824 834 815 811 813 807 805 808 807 801 800 799 795 795 796 795 795 792 792 794 795 796 798 801 804 807 811 814 817 820 823 825 828 829 831 833 835 836 838 840 842 844 846 847 848 850 851 853 854 856 857 858 859 860 861 862 862 863 864 864 864 864 865 865 865 866 866 867 868 869 870 870 870 870 871 871 871 871 872 872 873 873 873 873
758 744 739 748 758 769 777 778 787 805 810 789 780 811 836 827 815 813 811 812 812 808 803 802 801 799 798 797 796 796 793 791 792 794 794 797 800 803 806 810 813 816 819 822 825 827 828 830 832 834 836 838 840 841 843 845 846 847 849 850 852 854 855 856 858 859 860 861 862 863 863 864 865 865 865 865 866 866 867 867 868 868 869 869 870 870 870 871 871 871 872 872 873 873 873 872 873
756 735 732 745 754 767 773 773 783 787 784 783 779 791 821 833 823 815 814 816 814 808 805 803 802 801 800 798 796 794 793 790 791 793 794 796 799 802 805 809 812 814 818 821 824 826 827 830 832 834 836 837 839 841 842 844 845 846 848 850 852 853 855 856 858 859 860 861 862 863 863 864 865 865 865 866 866 867 867 868 868 869 869 870 870 870 871 871 871 872 872 873 873 873 873 873 873
744 726 729 738 747 764 768 769 780 776 779 801 792 781 814 836 824 816 815 816 817 811 806 804 802 801 799 798 795 793 791 789 789 790 792 794 797 801 804 807 811 814 817 820 823 825 827 829 832 834 836 837 839 841 842 843 845 846 848 850 852 853 854 856 857 859 860 861 862 863 864 864 865 865 866 866 867 868 868 868 869 869 869 870 871 871 871 872 872 872 873 873 873 873 874 874 873
731 723 729 733 742 758 763 772 781 779 793 813 794 778 813 838 826 818 818 816 815 811 806 803 801 800 799 797 794 792 791 790 789 789 790 793 796 799 803 806 810 813 815 819 822 824 826 829 831 833 835 837 838 840 842 843 845 846 848 850 851 853 854 856 857 858 860 861 862 863 864 864 865 866 866 867 867 868 868 869 869 870 870 871 871 871 872 872 872 873 873 873 874 874 874 874 874
724 727 736 741 747 754 763 767 769 787 805 803 786 773 797 830 828 816 812 807 804 806 806 803 800 799 799 796 794 791 791 791 790 790 790 793 795 798 802 805 809 812 814 818 820 823 825 828 830 833 835 836 838 840 841 843 844 846 847 849 851 852 854 855 856 858 859 861 862 863 864 865 865 866 867 867 868 868 869 869 870 870 871 871 872 872 872 873 873 873 874 874 874 874 874 875 874
725 735 742 753 759 760 771 770 769 798 807 786 777 773 787 822 826 809 801 796 795 801 803 802 801 801 799 796 793 790 789 790 790 791 792 793 795 797 800 804 807 810 813 816 819 821 824 827 830 832 834 836 837 839 841 842 844 846 847 849 850 852 853 855 856 857 859 860 861 862 864 865 865 866 867 867 868 868 869 869 870 870 871 871 872 872 873 873 873 874 874 874 875 875 875 875 875
733 741 748 767 780 781 792 791 788 803 795 771 769 777 798 820 813 799 796 794 795 797 796 796 797 799 798 794 791 789 790 791 790 791 793 793 794 796 799 802 805 808 811 814 817 820 822 825 828 831 833 835 836 838 840 842 843 845 847 848 850 851 853 854 856 857 858 860 861 862 863 865 866 866 867 867 868 868 869 869 870 870 871 872 872 873 873 874 874 874 874 875 875 875 875 875 875
743 749 753 772 788 800 813 806 800 801 786 767 764 782 816 824 805 796 793 791 793 794 793 792 792 795 795 792 789 790 792 792 790 790 792 793 793 795 798 800 803 806 809 811 814 817 820 823 826 829 831 833 835 837 839 841 842 844 846 848 849 851 852 854 855 856 858 860 861 862 863 864 865 866 867 868 868 869 869 870 870 871 871 872 872 873 873 874 874 874 875 875 875 875 875 876 876
743 739 742 762 773 790 806 802 800 798 783 773 774 794 822 822 805 794 788 788 790 791 792 791 790 790 789 789 788 789 792 791 789 789 791 792 793 795 798 799 801 804 807 809 811 814 817 820 824 827 829 832 833 835 837 839 841 843 845 847 849 850 851 853 855 856 857 859 860 862 863 864 865 866 867 868 869 869 870 870 871 871 872 872 873 873 874 874 874 875 875 875 875 876 876 876 876
742 730 741 758 753 761 777 776 776 775 779 790 795 805 812 805 801 795 789 792 791 790 792 792 792 789 787 792 794 795 795 791 790 791 791 792 794 797 799 800 801 803 806 808 809 811 814 817 821 824 827 830 832 833 835 837 840 842 844 846 848 849 851 852 854 855 856 858 860 861 862 863 865 866 867 868 869 869 870 870 871 872 872 873 873 873 874 874 875 875 875 875 875 876 876 876 876
746 741 752 749 732 741 763 768 760 760 790 812 809 816 819 811 815 811 800 799 794 792 793 792 794 792 792 799 802 801 798 792 791 792 793 795 798 799 800 800 801 803 805 807 808 809 810 813 817 821 824 827 830 832 833 836 838 840 842 844 846 848 850 851 852 854 855 857 859 860 861 863 863 865 866 867 868 869 869 870 871 872 872 873 873 873 874 874 875 875 875 875 875 876 876 876 876
748 755 753 738 729 737 754 773 774 772 803 818 806 813 822 821 827 818 803 801 796 793 792 791 794 795 797 801 800 799 798 795 793 793 796 798 800 801 799 799 801 803 804 804 807 808 808 810 813 817 821 824 827 830 832 834 836 838 841 842 845 847 848 850 851 853 855 856 857 859 860 861 862 864 865 866 868 868 869 870 870 871 872 872 873 873 874 874 875 875 875 875 875 876 876 876 876
739 747 740 741 757 762 760 774 781 783 808 825 820 819 816 816 820 810 802 801 795 793 793 794 797 798 800 800 799 800 801 801 798 795 798 799 800 801 800 801 804 805 805 804 807 810 809 810 812 814 818 820 823 827 829 832 834 836 839 840 843 845 846 849 850 852 853 854 856 857 858 860 861 863 864 865 867 868 869 869 870 871 871 872 873 873 874 874 875 875 875 875 875 875 875 875 875
734 739 738 742 756 763 759 762 766 777 805 828 838 839 827 820 815 805 801 798 794 795 797 798 800 801 801 801 802 803 803 804 802 799 800 798 799 801 801 804 806 807 808 807 809 811 809 810 812 813 816 818 821 824 826 830 833 835 837 838 840 843 845 847 849 851 852 853 854 855 857 858 859 861 862 863 865 866 868 869 869 870 871 871 872 872 873 874 874 875 875 875 875 875 875 875 875
748 753 754 751 749 749 753 754 748 759 793 820 835 842 833 820 814 809 803 797 794 796 797 799 802 801 802 802 803 804 803 804 805 803 802 800 800 801 802 805 806 807 809 810 812 812 809 810 812 813 816 818 820 823 825 828 830 832 835 836 838 840 842 846 847 849 851 851 853 854 855 857 858 859 861 862 863 864 866 867 868 870 870 871 872 872 872 873 873 874 874 874 874 874 874 874 874
749 754 754 752 751 752 764 770 752 749 780 802 816 836 834 815 810 811 803 795 793 794 796 801 803 802 804 804 804 805 805 806 808 806 805 802 801 803 804 806 807 808 811 812 814 815 815 816 815 815 818 820 821 823 825 826 827 830 833 835 837 838 840 843 845 848 849 850 852 853 854 856 856 858 859 860 862 862 864 865 866 868 869 870 870 871 872 872 872 873 873 873 874 874 874 873 873